User: anonymous   Login
Location: Stigler
(35.2540°N, 95.1230°W)
Time: 06:40:12
(UTC-06:00)
Language:

Cosmos 1805 - Orbit

View from above orbital plane
View from above orbital plane
View from above satellite
View from above satellite

Ground track
Ground track

The orbit data is extracted from the following two-line orbital elements,

1 17191U 86097A   15061.51167071  .00004401  00000-0  27476-3 0  9998
2 17191 082.4857 133.3136 0006863 081.9627 278.2380 15.09248006537168
Epoch (UTC): 02 March 2015 12:16:48
Eccentricity: 0.0006863
inclination: 82.4857°
perigee height: 534 km
apogee height: 543 km
right ascension of ascending node: 133.3136°
argument of perigee: 81.9627°
revolutions per day: 15.09248006
mean anomaly at epoch: 278.2380°
orbit number at epoch: 53716

The dashed part of the orbit path shows where the satellite is in the earth's shadow,  

DLR